Location: *
(50.8667°S, 179.2667°W)
Time: 19:57:02
(UTC+00:00)

Cosmos 1745 Rocket - Pass Details

Date: 02 October 2023
Orbit: 951 x 998 km, 83.0° (Epoch: 10 December)

Event Time Altitude Azimuth Distance (km) Brightness Sun altitude
Rises 16:06:07 0° 194° (SSW) 3,674 7.1 -12.6°
Reaches altitude 10° 16:08:43 10° 200° (SSW) 2,725 6.4 -12.2°
Maximum altitude 16:14:36 46° 270° (W) 1,297 4.3 -11.3°
Drops below altitude 10° 16:20:29 10° 340° (NNW) 2,721 6.0 -10.4°
Sets 16:23:05 0° 346° (NNW) 3,667 6.7 -10.1°
